RH
52 62 70 72 69 79 84 93 98 100 96 94 99 100 97 96 89 83 85 85 93 92 87 84 83 89 95
77 66 37 28 57 47 46 84 94 98 100 98 91 100 99 100 96 87 94 95 87 88 96 93 91 88 100
46 47 33 19 16 25 26 37 74 96 99 99 98 96 98 100 100 98 94 90 88 89 100 96 94 96 96
33 27 26 22 21 19 13 20 31 60 94 100 98 100 100 99 99 100 100 90 96 98 92 94 91 91 94
36 36 35 27 27 23 21 14 9 19 39 88 93 100 100 100 100 98 98 100 100 100 96 96 95 98 93
49 50 42 41 41 38 34 25 28 8 11 16 42 80 96 100 100 100 100 98 94 91 91 92 95 100 99
74 69 70 60 59 51 47 46 44 18 18 17 7 11 50 81 95 99 98 94 93 90 86 92 100 100 100
79 77 81 61 58 72 66 78 55 38 43 74 19 15 9 18 34 84 93 94 92 88 88 92 100 100 100
69 82 85 66 53 67 61 72 74 76 31 100 99 97 62 24 12 25 78 98 95 99 96 97 99 100 100
73 70 80 73 54 60 71 80 91 95 67 75 76 78 87 64 59 80 56 75 98 99 100 100 98 100 100
93 83 79 75 58 56 64 74 81 80 55 68 70 51 60 81 43 61 92 99 98 100 100 100 100 100 100
96 80 87 71 62 61 63 72 79 81 58 60 100 95 100 100 98 27 31 77 98 99 100 100 100 100 100
83 92 89 77 71 66 67 68 70 62 60 58 97 100 100 99 100 97 80 20 56 98 100 100 100 100 100
95 97 96 88 75 67 68 66 79 49 51 61 74 95 98 98 98 98 99 100 53 90 100 100 100 100 100
98 97 94 86 84 75 79 85 85 70 48 56 65 76 95 96 99 97 97 99 100 68 94 100 100 100 99
79 79 82 85 84 85 88 90 86 86 88 70 93 91 85 91 90 86 94 95 91 99 74 100 100 98 100
91 86 87 87 96 97 86 82 88 90 94 90 100 100 96 100 71 90 94 98 97 95 100 100 100 98 98
Wind_Speed
23 24 23 26 26 25 23 23 27 28 28 29 32 40 46 48 46 40 39 42 41 39 37 34 32 32 25
26 26 27 25 27 28 26 22 23 22 26 31 30 40 44 41 42 42 36 40 43 43 42 33 35 35 29
26 27 24 23 25 25 27 25 24 22 19 23 28 30 33 34 40 42 50 42 43 44 36 36 35 37 32
20 21 22 21 21 26 29 25 27 21 24 19 19 18 22 27 26 30 35 42 42 40 42 42 40 38 37
18 19 21 23 25 25 27 28 27 25 26 24 24 19 18 19 22 28 38 38 40 41 46 48 47 45 42
18 21 21 21 23 24 26 27 30 23 26 29 27 29 23 19 18 21 22 29 33 37 42 45 49 50 48
18 18 20 20 23 27 26 26 28 28 29 36 28 30 30 30 23 20 21 26 30 34 36 37 40 42 46
17 18 18 22 23 23 24 26 28 25 22 29 29 30 28 31 30 25 21 21 25 27 30 31 31 35 46
18 18 18 21 22 23 23 24 27 27 23 18 17 26 26 27 26 24 23 21 20 14 15 22 19 31 46
21 20 20 22 22 20 20 21 22 24 16 25 30 27 21 26 21 16 21 20 17 17 16 15 15 32 34
24 23 23 25 24 22 21 21 24 27 28 27 31 32 32 34 35 23 19 14 12 17 21 25 29 35 38
26 25 23 25 24 24 24 24 24 26 26 26 26 26 29 31 30 33 33 28 20 19 21 24 28 30 38
25 23 23 25 26 26 26 27 28 28 25 22 21 23 27 31 32 32 34 31 31 20 22 28 28 34 38
20 20 22 25 27 27 29 28 30 31 27 21 21 20 26 28 30 33 33 30 25 24 24 27 31 34 35
20 24 27 28 29 30 27 26 28 30 31 27 24 22 24 26 29 31 33 33 29 31 33 30 31 35 35
29 29 29 29 29 28 25 25 27 28 29 27 24 23 24 26 23 30 33 34 34 29 36 36 37 34 36
27 28 27 26 24 26 27 26 27 27 25 23 23 24 28 30 30 25 29 30 32 36 34 37 35 37 35
Wind_Direction
290 290 285 289 289 283 286 290 274 265 266 269 267 258 248 251 251 242 243 244 241 238 237 240 243 247 253
291 292 298 302 290 296 294 284 290 283 272 266 269 260 256 257 253 238 247 247 239 239 239 241 247 244 251
294 291 295 297 295 286 287 286 278 280 290 279 267 259 256 250 253 246 242 248 242 240 236 239 243 245 250
304 305 307 300 296 298 290 286 288 288 273 282 280 262 256 254 254 243 236 243 236 235 243 240 244 248 252
320 316 313 318 318 314 308 302 290 297 288 276 268 271 257 253 255 247 247 245 242 244 241 245 248 248 249
324 322 321 324 321 322 318 317 316 293 293 280 283 266 268 272 260 253 251 247 250 250 248 249 248 247 245
318 319 319 321 321 319 317 314 308 308 306 297 287 280 271 269 269 265 257 252 253 252 252 252 246 240 235
315 313 316 320 317 313 312 309 306 306 308 306 303 296 281 268 266 264 267 253 247 250 249 246 241 240 237
303 299 302 315 312 309 310 310 311 307 308 310 314 304 296 283 274 264 264 270 248 241 247 237 239 247 226
297 297 295 305 307 308 309 309 310 316 300 294 295 304 310 293 278 265 252 258 270 261 254 257 230 214 221
292 291 289 295 298 300 301 302 304 303 304 300 294 294 285 284 278 262 269 256 258 274 257 241 245 233 226
289 291 288 291 295 298 297 295 295 299 301 293 287 288 289 286 288 281 266 261 270 272 270 257 247 242 228
279 280 286 293 298 300 297 294 294 295 296 291 284 287 283 284 279 281 288 270 255 260 272 260 254 241 229
283 280 289 293 297 301 304 302 304 300 300 291 278 286 288 284 276 277 276 275 264 255 261 268 259 250 247
284 286 290 296 298 302 301 300 301 304 301 298 287 281 285 284 282 269 270 270 269 256 251 262 260 253 253
290 290 292 293 296 297 298 299 299 299 300 298 298 299 297 288 282 271 264 264 263 257 244 251 255 257 253
295 293 291 290 289 291 294 294 294 299 300 299 296 297 298 287 288 282 268 267 267 254 243 245 245 253 254